Torna al catalogo

STARLINK-4582

AttivoComunicazioniVLEO
NORAD 53569·PAYLOAD·🇺🇸 United States

Lanciato Aug 19, 2022 da Cape Canaveral Space Force Station

Loading…

Prossimi Passaggi (prossime 24 ore)

TLE

AggiornatoSource: CelesTrak SupGP

Epoca: Sep 15, 2026, 02:17 UTC

1 53569C 22101AU  26258.09562500 -.00027748  00000+0 -81975-3 0  2584
2 53569  53.1569 269.1051 0001154  84.2275 152.5245 15.34407715    14

Traccia STARLINK-4582 in tempo reale con AllMySat

Download on the App Store